Location: Starry Hill Observatory
(46.8582°N, 122.3590°W)
Time: 10:36:04
(UTC-07:00)

ISS - Visible Passes

Search period start: 24 September 2017 00:00
Search period end: 04 October 2017 00:00
Orbit: 401 x 407 km, 51.6° (Epoch: 25 September)

Date Brightness Start Highest point End Pass type
(mag) Time Alt. Az. Time Alt. Az. Time Alt. Az.
24 Sep -1.4 20:51:49 10° SSW 20:52:28 14° SSW 20:52:28 14° SSW visible
25 Sep -2.1 20:00:19 10° S 20:02:31 17° SE 20:02:57 17° SE visible
25 Sep -0.8 21:35:21 10° WSW 21:35:39 12° WSW 21:35:39 12° WSW visible
26 Sep -3.6 20:43:03 10° SW 20:45:54 53° S 20:45:54 53° S visible
27 Sep -3.0 19:51:00 10° SSW 19:54:00 34° SE 19:55:59 17° E visible
27 Sep -1.5 21:27:10 10° W 21:28:39 24° W 21:28:39 24° W visible
28 Sep -3.8 20:34:40 10° WSW 20:37:57 76° NNW 20:38:34 54° NE visible
29 Sep -3.8 19:42:18 10° SW 19:45:32 69° SSE 19:48:23 13° ENE visible
29 Sep -1.7 21:19:05 10° W 21:21:02 28° NW 21:21:02 28° NW visible
30 Sep -3.1 20:26:28 10° W 20:29:39 48° NNW 20:30:44 33° NE visible
01 Oct -3.5 19:33:54 10° WSW 19:37:09 67° NNW 19:40:22 10° ENE visible
01 Oct -1.8 21:10:56 10° WNW 21:13:00 27° NW 21:13:00 27° NW visible
02 Oct -2.6 20:18:18 10° WNW 20:21:23 36° N 20:22:35 26° NE visible
02 Oct -0.2 21:55:11 10° WNW 21:55:13 10° WNW 21:55:13 10° WNW visible
03 Oct -2.9 19:25:39 10° W 19:28:48 44° NNW 19:31:59 10° ENE visible
03 Oct -1.9 21:02:40 10° WNW 21:04:45 28° NNW 21:04:45 28° NNW visible
